This is the latest recevied weather packets stored in our database for station/object WX4LTG. If no packets are shown the sender has not sent any weather packets the latest 10 day(s).
| Time | Temp. | Humidity | Pressure | Rain* | Wind** | Luminosity | Snow |
|---|---|---|---|---|---|---|---|
| 1777385966 | 17.22° C | 32% | 1016.6 hPa | 0 mm | - | 134 W/m² | - |
| 1777385662 | 17.22° C | 33% | 1016.6 hPa | 0 mm | - | 122 W/m² | - |
| 1777385360 | 17.22° C | 33% | 1016.4 hPa | 0 mm | - | 111 W/m² | - |
| 1777385056 | 17.22° C | 34% | 1016.4 hPa | 0 mm | - | 100 W/m² | - |
| 1777384753 | 17.22° C | 34% | 1016.2 hPa | 0 mm | - | 89 W/m² | - |
| 1777384448 | 16.11° C | 34% | 1016.3 hPa | 0 mm | - | 79 W/m² | - |
| 1777384144 | 15.56° C | 35% | 1016.3 hPa | 0 mm | - | 71 W/m² | - |
| 1777383841 | 15° C | 36% | 1016.2 hPa | 0 mm | - | 62 W/m² | - |
| 1777383536 | 15° C | 35% | 1015.9 hPa | 0 mm | - | 54 W/m² | - |
| 1777383233 | 14.44° C | 36% | 1016.1 hPa | 0 mm | - | 47 W/m² | - |
| 1777382930 | 14.44° C | 36% | 1015.9 hPa | 0 mm | - | 41 W/m² | - |
| 1777382625 | 14.44° C | 37% | 1015.8 hPa | 0 mm | - | 34 W/m² | - |
| 1777382321 | 13.89° C | 36% | 1015.9 hPa | 0 mm | - | 28 W/m² | - |
| 1777382017 | 13.89° C | 37% | 1015.8 hPa | 0 mm | - | 24 W/m² | - |
| 1777381712 | 13.33° C | 38% | 1015.7 hPa | 0 mm | - | 19 W/m² | - |
| 1777381407 | 13.33° C | 39% | 1015.6 hPa | 0 mm | - | 15 W/m² | - |
| 1777381104 | 13.33° C | 39% | 1015.7 hPa | 0 mm | - | 12 W/m² | - |
| 1777380801 | 12.78° C | 40% | 1015.4 hPa | 0 mm | - | 9 W/m² | - |
| 1777380498 | 12.78° C | 39% | 1015.5 hPa | 0 mm | - | 6 W/m² | - |
| 1777380195 | 12.78° C | 39% | 1015.3 hPa | 0 mm | - | 3 W/m² | - |
| 1777379890 | 12.78° C | 38% | 1015.4 hPa | 0 mm | - | 2 W/m² | - |
| 1777379586 | 12.78° C | 38% | 1015.2 hPa | 0 mm | - | 1 W/m² | - |
| 1777379283 | 12.78° C | 39% | 1015 hPa | 0 mm | - | 0 W/m² | - |
| 1777378982 | 12.78° C | 38% | 1015 hPa | 0 mm | - | 0 W/m² | - |
| 1777378678 | 12.78° C | 41% | 1014.8 hPa | 0 mm | - | 0 W/m² | - |
* Rain latest hour (hover to see other rain measurements)
** Current wind speed in m/s (hover to see current wind gust speed)